Regional Weather Roundup
Issued by NWS

Home | Current Version | Previous Version | Text Only | Print | Product List | Glossary On
Versions: 1 2 3 4 5 6 7 8 9 10 11 12 13 14 15 16 17 18 19 20 21 22 23 24 25 26 27 28 29 30 31 32 33 34 35 36 37 38 39 40 41 42 43 44 45 46 47 48 49 50
000
ASUS44 KEWX 231912
RWRTX
SOUTH TEXAS REGIONAL WEATHER ROUNDUP
NATIONAL WEATHER SERVICE AUSTIN/SAN ANTONIO TX
200 PM CDT FRI JUN 23 2017

NOTE: "FAIR" INDICATED FEW OR NO CLOUDS BELOW 12,000 FEET WITH NO
SIGNIFICANT WEATHER AND/OR OBSTRUCTIONS TO VISIBILITY.

* - THESE STATIONS ARE NOT NWS OR FAA STATIONS...AND ARE NOT SUBJECT
    TO NWS AND FAA QUALITY CONTROL.

TXZ171-172-183>190-232000-
TEXAS HILL COUNTRY AND EDWARDS PLATEAU

CITY           SKY/WX    TMP DP  RH WIND       PRES   REMARKS
JUNCTION       SUNNY    102  62  26 S10       29.81F HX 104
*LLANO           N/A    N/A N/A N/A MISG        N/A
BURNET         SUNNY     96  68  39 S10       29.84F HX 101
*HORSESHOE BAY SUNNY     99  66  34 MISG      29.81F HX 103
*KERRVILLE     SUNNY     97  72  44 S9G16     29.84F HX 105
*FREDERICKSBRG SUNNY     96  65  35 SW10      29.84F HX  98
*ROCKSPRINGS   MOSUNNY   99  63  30 S10       29.89F HX 100
*BOERNE STAGE  SUNNY     91  70  49 S5        29.84F HX  97
*CASTROVILLE   SUNNY    100  65  32 CALM      29.81S HX 103
HONDO          SUNNY     98  71  41 SE10      29.80F HX 106
*UVALDE        SUNNY     96  73  47 E9        29.80F HX 105
DEL RIO        SUNNY     98  68  37 SE8       29.76F HX 103
LAUGHLIN AFB   MOSUNNY   98  71  40 SE12G17   29.77F HX 106
CARRIZO SPRGS  SUNNY    104  66  29 SE5       29.74F HX 109
*EAGLE PASS    NOT AVBL
$$

TXZ173-191>194-202-209-217>225-228-232000-
CENTRAL AND SOUTH CENTRAL TEXAS

CITY           SKY/WX    TMP DP  RH WIND       PRES   REMARKS
GEORGETOWN     SUNNY     97  72  44 S12G20    29.80F HX 105
AUSTIN/BERGSTM PTSUNNY   98  72  42 S9        29.79F HX 107
AUSTIN/MABRY   SUNNY     99  70  38 S7        29.81F HX 106
*AUSTIN/EXEC     N/A     95  73  49 S12G17    29.80F HX 105
*LAGO VISTA    MOSUNNY   98  68  37 S8G17     29.83F HX 102
SAN MARCOS     SUNNY     97  73  46 S13       29.82S HX 107
NEW BRAUNFELS  SUNNY     97  71  42 SE14      29.79F HX 104
RANDOLPH AFB   CLOUDY    98  70  40 SE9G20    29.80F HX 104
PT SAN ANTONIO MOSUNNY   98  71  41 S10       29.78F HX 106
SAN ANTONIO    PTSUNNY   97  71  42 SE9       29.81F HX 104
STINSON FIELD  SUNNY    101  71  38 SE13G18   29.77F HX 109
*LA GRANGE     SUNNY     99  74  45 S9        29.79F HX 111
*GIDDINGS      SUNNY     93  71  48 SE9       29.83F HX 100
*GONZALES      SUNNY     99  75  46 S9G16     29.80S HX 112
$$

TXZ163>164-176>182-195>201-210>213-226-227-235-232000-
SOUTHEAST TEXAS

CITY           SKY/WX    TMP DP  RH WIND       PRES   REMARKS
COLLEGE STN    SUNNY     93  75  55 S16       29.82F HX 104
*BRYAN         SUNNY     94  75  55 SE9       29.83F HX 105
*CALDWELL      NOT AVBL
*CROCKETT      MOSUNNY   90  77  66 S7        29.86F HX 102
*BRENHAM       MOSUNNY   95  74  50 SE12      29.83F HX 105
HUNTSVILLE     MOSUNNY   92  71  50 VRB6      29.85F HX  98
CONROE         PTSUNNY   91  73  55 S9        29.85F HX  99
HOUSTON BUSH   MOSUNNY   95  74  50 S10       29.83F HX 105
HOUSTON HOBBY  MOSUNNY   93  75  55 S8        29.84F HX 104
*HOUSTON SW AP MOSUNNY   92  75  56 S7        29.85F HX 103
PEARLAND       MOSUNNY   93  75  55 SE14G21   29.86F HAZE    HX 104
HOUSTON HOOKS  MOSUNNY   94  74  52 S9        29.84F HX 104
ELLINGTON FLD  PTSUNNY   93  73  52 S10       29.87F HX 102
SUGAR LAND     SUNNY     94  74  52 S14       29.83F HX 104
*HOUSTON EXEC  MOSUNNY   93  75  55 S14       29.85S HX 104
*CLEVELAND MUN MOSUNNY   91  75  59 S10G16    29.85F HX 102
*WHARTON       SUNNY     92  69  46 S12       29.84S HX  97
*COLUMBUS      FAIR      94  72  47 SE10G17   29.83F HX 102
*EAGLE LAKE    PTCLDY    95  75  52 S10       29.83S HX 107
$$

TXZ214>216-236>238-232000-
THE UPPER TEXAS COAST

CITY           SKY/WX    TMP DP  RH WIND       PRES   REMARKS
*ORANGE        CLOUDY    87  79  76 S13G18    29.90S HX 101
PORT ARTHUR    CLOUDY    88  77  69 S14       29.87F HX 100
GALVESTON      MOSUNNY   87  81  82 S14       29.88S HAZE    HX 104
ANGLETON       MOSUNNY   91  79  67 S15       29.86S HX 107
*BAY CITY      MOSUNNY   92  75  58 S9        29.85F HX 103
PALACIOS       SUNNY     87  75  67 S16       29.84F HX  96
$$

TXZ229>234-239>247-232000-
TEXAS COASTAL BEND AND RIO GRANDE PLAINS

CITY           SKY/WX    TMP DP  RH WIND       PRES   REMARKS
VICTORIA       MOSUNNY   96  74  48 S13       29.82S HX 107
*BEEVILLE      SUNNY     97  73  45 SE7G17    29.80S HX 106
ROCKPORT       MOSUNNY   92  76  59 SE16G22   29.81S HX 104
*PORT ARANSAS  MOSUNNY   89  76  65 S16G24    29.81F HX 100
*PORT LAVACA   MOSUNNY   91  79  67 S12G17    29.83S HX 107
*INGLESIDE     MOSUNNY   93  77  60 MISG      29.80F HX 107
CORPUS CHRISTI MOSUNNY   93  78  61 SE17      29.78F HX 108
CORPUS NAS     MOSUNNY   93  79  63 SE23G30   29.79F HX 110
*ROBSTOWN      SUNNY     94  77  56 SE12G21   29.79S HX 109
ALICE          LGT RAIN  99  75  46 E20G31    29.76S HX 112
KINGSVILLE NAS MOSUNNY   98  81  58 SE15G25   29.76F HX 120
COTULLA        SUNNY    103  65  29 S8G17     29.75F HX 106
*FAITH RANCH   SUNNY    104  64  27 S12       29.76F HX 107
LAREDO         SUNNY    103  69  33 SE12      29.75F HX 110
$$

TXZ248>255-232000-
DEEP SOUTH TEXAS

CITY           SKY/WX    TMP DP  RH WIND       PRES   REMARKS
BROWNSVILLE    MOSUNNY   95  75  52 S18G29    29.78S HX 107
PORT ISABEL    MOSUNNY   96  76  52 SE20G29   29.77S HX 109
*SOUTH PADRE   NOT AVBL
HARLINGEN      SUNNY     99  76  47 S20G28    29.75F HX 113
*HEBBRONVILLE  SUNNY    100  63  29 SE7       29.78S HX 101
MCALLEN        SUNNY    102  72  37 SE15G23   29.75F HX 112
*WESLACO       MOSUNNY   99  72  42 S15G22    29.75F HX 107
FALFURRIAS     SUNNY    101  67  33 SE9       29.75F HX 106
EDINBURG       SUNNY    101  65  30 S15G22    29.76F HX 105
*ZAPATA        SUNNY    104  62  25 SE10G17   29.73F HX 106
$$

TXZ213>215-236>238-242>244-246-247-251-254-255-232000-
CMAN STATIONS

STATION/POSITION TIME  TEMP    WIND        PRES    WAVE
                       AIR SEA DIR/SP/G            HT/PER
                 (UTC) (F)     (DEG/KT/KT) (MB)    (FT/S)
SABINE PASS      1842   85 84  190/ 12/ 17 1013.6
SEA RIM ST PARK  1900   84     180/ 11/ 12 1012.4
NORTH JETTY/GLS  1842      84  170/ 11/ 14 1011.1
EAGLE POINT      1842   85 82  210/ 14/ 15 1011.4
MORGANS POINT    1848   87 83  150/  9/ 12 1011.1
MISSION/ARANSAS  1800          150/ 17       N/A
PORT O`CONNOR    1842   85     160/ 14/ 16 1010.2
PORT ARANSAS     1800   85 85  150/ 18/ 19 1009.8
MALAQUITE BEACH  1848   85 86  140/ 20/ 22 1008.6
BAFFIN BAY       1848   86 88              1008.9
PORT ISABEL      1848   87 86              1008.8
$$

GMZ080-GMZ150>470-232000-
OFFSHORE BUOY REPORTS

STATION/POSITION TIME  TEMP    WIND        PRES    WAVE
                       AIR SEA DIR/SP/G            HT/PER
                 (UTC) (F)     (DEG/KT/KT) (MB)    (FT/S)
20 E GALVESTON   1750   83 83  180/ 10/ 10 1011.7    5/ 6
90 E PT ARANSAS  1750   84 83  150/ 14/ 17 1010.7    7/ 8
35 NE PT MANSFLD 1850   85     160/ 16/ 19 1008.7    7/ 7
200 E PT ISABEL  1750   84 83  160/ 14/ 16 1011.7    6/ 7
$$




USA.gov is the U.S. government's official web portal to all federal, state and local government web resources and services.